Temp
-21 -20 -19 -19 -19 -18 -17 -18 -17 -17 -17 -17 -16 -16 -17 -17 -16 -16 -15 -15 -15 -15 -15 -14 -14 -14 -12 -11 -12 -12 -12 -11 -11 -10 -10 -10 -10 -10 -10 -10 -10 -10 -10 -10
-21 -19 -19 -20 -20 -19 -19 -18 -18 -18 -18 -18 -18 -17 -17 -18 -16 -16 -16 -16 -16 -15 -14 -14 -14 -14 -13 -13 -12 -12 -12 -12 -12 -11 -11 -11 -10 -10 -11 -10 -11 -11 -10 -10
-20 -20 -19 -19 -19 -19 -19 -18 -19 -19 -18 -18 -17 -17 -17 -17 -17 -16 -16 -15 -15 -15 -14 -14 -14 -14 -13 -13 -13 -13 -13 -12 -12 -12 -11 -11 -11 -11 -11 -11 -11 -11 -11 -11
-20 -20 -20 -19 -19 -19 -19 -19 -19 -19 -18 -17 -18 -16 -16 -16 -16 -16 -15 -15 -15 -14 -14 -14 -14 -14 -14 -13 -13 -13 -12 -12 -12 -12 -12 -12 -11 -11 -11 -10 -11 -11 -11 -11
-21 -20 -20 -19 -19 -19 -19 -19 -19 -19 -19 -18 -18 -17 -16 -16 -16 -16 -15 -15 -15 -14 -14 -14 -14 -14 -14 -14 -13 -13 -13 -12 -12 -12 -12 -12 -12 -11 -11 -11 -11 -11 -11 -11
-21 -21 -20 -19 -19 -19 -19 -19 -19 -19 -19 -18 -18 -18 -16 -16 -16 -16 -16 -16 -16 -15 -14 -14 -14 -14 -14 -14 -14 -14 -13 -13 -13 -12 -12 -12 -12 -11 -11 -11 -12 -12 -12 -12
-21 -20 -20 -19 -20 -20 -20 -19 -19 -19 -19 -17 -18 -17 -16 -17 -16 -15 -16 -16 -17 -16 -15 -15 -14 -14 -14 -14 -14 -14 -14 -14 -13 -13 -13 -12 -11 -11 -11 -11 -12 -12 -12 -12
-21 -20 -20 -19 -19 -19 -19 -19 -19 -19 -18 -17 -17 -16 -16 -17 -17 -16 -16 -16 -16 -16 -15 -15 -14 -15 -15 -15 -15 -15 -15 -14 -13 -13 -13 -12 -12 -11 -11 -12 -12 -12 -12 -12
-20 -20 -19 -19 -19 -19 -19 -19 -19 -19 -18 -18 -17 -16 -17 -18 -17 -17 -16 -16 -16 -16 -16 -16 -15 -15 -15 -15 -15 -15 -14 -14 -13 -13 -13 -12 -12 -12 -12 -12 -12 -12 -11 -12
-20 -20 -19 -19 -19 -19 -19 -19 -19 -19 -18 -17 -16 -16 -17 -18 -18 -17 -17 -16 -16 -16 -16 -17 -16 -16 -15 -15 -15 -15 -15 -15 -14 -13 -13 -13 -13 -12 -12 -12 -12 -12 -12 -12
-20 -20 -20 -20 -19 -19 -19 -19 -18 -19 -18 -18 -17 -16 -17 -18 -18 -18 -18 -17 -17 -17 -17 -17 -16 -15 -15 -15 -14 -14 -14 -14 -14 -13 -13 -13 -12 -12 -12 -12 -12 -12 -12 -12
-20 -20 -19 -19 -19 -19 -19 -18 -18 -18 -17 -17 -18 -17 -18 -18 -18 -18 -18 -17 -17 -17 -17 -17 -16 -16 -15 -15 -14 -14 -14 -14 -14 -13 -13 -13 -13 -13 -13 -13 -12 -12 -12 -12
-19 -19 -19 -19 -19 -18 -18 -18 -18 -18 -17 -17 -17 -17 -18 -18 -18 -18 -18 -17 -17 -17 -16 -16 -16 -16 -16 -15 -15 -14 -14 -14 -14 -14 -13 -13 -13 -13 -13 -13 -13 -13 -13 -12
-19 -19 -19 -19 -19 -19 -19 -18 -18 -18 -17 -17 -17 -17 -18 -18 -18 -18 -17 -18 -17 -16 -16 -16 -16 -17 -16 -16 -15 -15 -14 -14 -14 -14 -14 -13 -13 -13 -13 -13 -13 -13 -13 -13
-20 -19 -19 -19 -19 -18 -18 -17 -17 -17 -17 -17 -17 -17 -18 -18 -18 -18 -18 -17 -17 -17 -16 -16 -16 -16 -16 -16 -15 -14 -15 -14 -14 -14 -14 -14 -14 -14 -14 -13 -13 -13 -13 -13
-19 -19 -19 -18 -18 -18 -18 -18 -18 -17 -17 -17 -17 -17 -18 -18 -18 -19 -18 -18 -17 -17 -17 -16 -16 -16 -15 -15 -15 -15 -15 -15 -15 -14 -14 -14 -14 -14 -14 -14 -13 -13 -13 -13
-19 -19 -19 -19 -19 -19 -18 -18 -18 -18 -18 -17 -17 -18 -18 -18 -18 -19 -18 -18 -18 -17 -17 -17 -17 -16 -16 -15 -15 -15 -15 -15 -15 -14 -14 -14 -14 -14 -14 -14 -14 -14 -14 -14
-19 -19 -19 -19 -19 -19 -19 -19 -19 -19 -18 -18 -18 -18 -18 -19 -19 -18 -18 -18 -18 -18 -17 -17 -17 -17 -16 -16 -16 -16 -15 -15 -15 -15 -15 -15 -14 -14 -14 -14 -14 -14 -14 -15
-19 -19 -19 -19 -19 -19 -19 -19 -19 -19 -19 -18 -18 -18 -18 -18 -19 -19 -19 -18 -18 -18 -17 -17 -17 -16 -16 -16 -16 -15 -15 -15 -15 -15 -15 -15 -15 -14 -14 -14 -15 -15 -15 -15
-20 -20 -20 -20 -19 -19 -20 -19 -19 -19 -19 -19 -18 -18 -18 -18 -18 -18 -18 -18 -18 -17 -17 -17 -17 -16 -16 -16 -16 -16 -15 -15 -15 -15 -15 -15 -15 -15 -15 -15 -15 -15 -15 -15
-20 -20 -20 -19 -20 -19 -19 -19 -20 -19 -19 -19 -19 -19 -19 -19 -19 -18 -18 -18 -18 -17 -17 -17 -17 -17 -16 -16 -16 -16 -16 -16 -15 -15 -15 -15 -15 -15 -15 -15 -15 -15 -15 -15
-20 -20 -20 -19 -19 -19 -19 -19 -20 -19 -19 -19 -19 -19 -18 -18 -19 -18 -18 -18 -18 -17 -17 -17 -17 -17 -17 -16 -16 -16 -16 -16 -16 -16 -16 -16 -16 -16 -15 -16 -16 -16 -16 -16
-20 -20 -20 -19 -19 -19 -19 -20 -20 -20 -20 -19 -19 -19 -18 -18 -18 -18 -18 -18 -18 -18 -18 -17 -17 -17 -17 -17 -17 -16 -16 -16 -16 -16 -16 -16 -16 -16 -16 -16 -16 -16 -16 -17
-20 -20 -20 -19 -19 -19 -19 -19 -20 -20 -19 -19 -19 -19 -18 -18 -18 -18 -18 -18 -18 -18 -18 -18 -18 -17 -17 -17 -17 -17 -17 -17 -17 -16 -16 -16 -16 -16 -16 -16 -17 -17 -17 -17
-21 -20 -20 -20 -20 -20 -19 -19 -19 -19 -19 -19 -19 -19 -18 -18 -18 -19 -19 -19 -18 -18 -18 -18 -18 -18 -17 -17 -17 -17 -17 -17 -17 -17 -17 -16 -16 -17 -17 -17 -18 -18 -18 -18
-21 -20 -20 -20 -20 -20 -20 -19 -19 -19 -19 -19 -19 -19 -18 -18 -18 -18 -18 -18 -18 -18 -18 -18 -18 -18 -18 -17 -17 -17 -17 -17 -17 -17 -17 -17 -17 -17 -18 -18 -18 -18 -18 -18
Height
5595 5607 5620 5637 5645 5654 5663 5672 5679 5685 5691 5700 5708 5712 5719 5723 5727 5734 5743 5749 5754 5761 5766 5772 5779 5784 5790 5796 5801 5805 5809 5813 5817 5821 5823 5826 5828 5828 5829 5831 5831 5833 5833 5832
5592 5605 5622 5634 5643 5652 5660 5668 5676 5682 5687 5693 5700 5707 5709 5713 5722 5728 5736 5741 5747 5751 5758 5766 5773 5780 5786 5791 5795 5800 5804 5807 5810 5811 5813 5817 5819 5821 5824 5826 5826 5826 5825 5825
5590 5607 5617 5630 5639 5648 5656 5664 5671 5679 5684 5689 5694 5700 5703 5711 5716 5722 5729 5736 5740 5746 5753 5759 5766 5772 5777 5783 5788 5792 5796 5800 5801 5803 5804 5807 5811 5815 5816 5817 5818 5818 5818 5819
5589 5601 5617 5627 5637 5646 5653 5660 5665 5673 5680 5686 5691 5697 5700 5707 5711 5715 5723 5730 5735 5740 5747 5752 5758 5764 5770 5774 5778 5783 5786 5790 5793 5796 5799 5800 5802 5805 5808 5809 5810 5810 5810 5809
5592 5604 5616 5625 5637 5643 5652 5658 5664 5670 5675 5680 5685 5689 5695 5696 5702 5713 5720 5724 5729 5734 5740 5745 5750 5756 5761 5766 5771 5774 5778 5781 5785 5789 5792 5795 5796 5797 5797 5798 5799 5800 5800 5800
5591 5603 5616 5624 5634 5641 5650 5656 5663 5668 5672 5675 5680 5684 5691 5693 5702 5703 5710 5715 5719 5726 5732 5737 5742 5747 5752 5757 5762 5766 5770 5773 5776 5778 5781 5786 5789 5790 5790 5790 5791 5791 5790 5789
5593 5605 5616 5625 5632 5638 5646 5653 5660 5665 5667 5671 5675 5677 5687 5689 5692 5696 5700 5707 5712 5718 5724 5729 5734 5739 5745 5749 5754 5758 5761 5764 5768 5771 5773 5776 5779 5780 5782 5782 5783 5784 5783 5782
5596 5605 5613 5621 5631 5639 5644 5650 5655 5658 5661 5666 5669 5672 5679 5681 5683 5688 5692 5699 5705 5710 5716 5720 5724 5731 5737 5741 5745 5748 5752 5756 5760 5762 5764 5766 5768 5770 5771 5773 5774 5774 5775 5774
5601 5608 5615 5621 5628 5637 5643 5647 5653 5656 5660 5664 5666 5669 5673 5675 5676 5679 5685 5692 5698 5704 5707 5712 5716 5721 5727 5731 5736 5739 5742 5747 5750 5753 5755 5757 5759 5760 5761 5763 5764 5765 5765 5765
5605 5611 5616 5622 5628 5635 5639 5647 5650 5654 5656 5658 5661 5664 5667 5669 5668 5670 5677 5684 5690 5696 5699 5705 5710 5714 5718 5722 5727 5730 5733 5738 5741 5744 5746 5748 5749 5751 5752 5754 5754 5755 5755 5755
5611 5615 5620 5624 5629 5634 5639 5643 5645 5650 5653 5653 5656 5660 5663 5663 5661 5663 5669 5675 5681 5687 5691 5696 5702 5707 5710 5714 5717 5722 5726 5729 5732 5734 5737 5739 5740 5742 5743 5744 5745 5745 5745 5745
5615 5618 5622 5626 5629 5631 5635 5640 5643 5646 5650 5651 5653 5656 5658 5657 5657 5660 5664 5669 5675 5680 5684 5688 5693 5699 5703 5706 5709 5713 5717 5720 5722 5725 5727 5729 5730 5732 5733 5734 5735 5735 5735 5736
5615 5618 5620 5623 5628 5630 5633 5636 5638 5642 5644 5646 5649 5651 5652 5654 5655 5657 5661 5665 5670 5674 5678 5682 5686 5690 5694 5698 5702 5705 5708 5710 5713 5716 5718 5719 5721 5722 5723 5724 5725 5725 5726 5726
5614 5617 5620 5623 5625 5626 5628 5632 5635 5637 5639 5642 5643 5646 5648 5649 5650 5653 5655 5659 5662 5667 5671 5675 5679 5682 5686 5690 5693 5697 5699 5701 5704 5706 5708 5710 5711 5712 5714 5715 5715 5716 5717 5717
5615 5617 5620 5622 5623 5625 5626 5628 5631 5633 5635 5636 5639 5640 5643 5644 5644 5645 5648 5652 5656 5661 5664 5668 5672 5675 5679 5683 5686 5688 5689 5692 5694 5696 5698 5700 5702 5704 5705 5706 5707 5708 5708 5708
5613 5615 5617 5618 5620 5621 5622 5625 5626 5627 5629 5631 5633 5636 5638 5639 5640 5641 5645 5647 5650 5653 5657 5660 5664 5668 5671 5674 5677 5679 5681 5683 5686 5688 5690 5692 5694 5695 5696 5698 5699 5699 5699 5700
5611 5612 5613 5614 5614 5615 5618 5620 5622 5624 5625 5627 5628 5632 5633 5635 5638 5639 5641 5643 5646 5649 5652 5654 5657 5660 5663 5667 5669 5671 5674 5676 5678 5680 5682 5684 5686 5687 5688 5689 5690 5691 5691 5692
5607 5608 5609 5610 5611 5613 5615 5616 5617 5619 5620 5623 5625 5627 5631 5633 5634 5636 5638 5639 5641 5644 5647 5649 5652 5654 5656 5659 5661 5664 5666 5668 5670 5672 5674 5676 5677 5679 5680 5680 5681 5682 5683 5684
5603 5604 5605 5607 5608 5610 5611 5612 5614 5615 5618 5619 5621 5622 5626 5629 5631 5631 5634 5636 5637 5640 5642 5644 5646 5648 5650 5652 5654 5656 5658 5660 5662 5664 5666 5668 5670 5671 5672 5673 5674 5675 5676 5677
5598 5600 5602 5604 5605 5606 5608 5609 5610 5612 5614 5616 5617 5618 5621 5622 5625 5627 5629 5632 5634 5636 5637 5639 5641 5642 5644 5646 5648 5649 5651 5653 5655 5657 5659 5661 5663 5664 5666 5666 5668 5668 5668 5670
5593 5596 5598 5599 5601 5604 5604 5606 5607 5609 5613 5611 5613 5615 5616 5618 5621 5623 5624 5627 5629 5630 5632 5633 5634 5636 5638 5640 5641 5643 5645 5646 5648 5650 5652 5655 5656 5657 5658 5659 5661 5661 5662 5662
5589 5591 5594 5595 5597 5600 5601 5602 5604 5606 5606 5608 5609 5610 5612 5614 5616 5618 5621 5622 5624 5625 5626 5628 5630 5631 5632 5634 5635 5637 5638 5640 5642 5644 5646 5648 5649 5650 5652 5654 5654 5655 5655 5656
5586 5588 5590 5593 5594 5596 5597 5599 5600 5601 5603 5605 5606 5607 5608 5610 5612 5614 5616 5618 5619 5620 5622 5623 5625 5626 5627 5628 5629 5630 5632 5634 5636 5638 5639 5641 5643 5645 5647 5647 5648 5648 5649 5650
5581 5583 5585 5588 5590 5592 5593 5596 5597 5598 5599 5601 5603 5604 5605 5606 5607 5609 5611 5612 5614 5615 5617 5618 5620 5621 5622 5623 5624 5625 5626 5628 5631 5632 5634 5636 5638 5639 5640 5640 5642 5643 5644 5644
5577 5579 5581 5583 5586 5588 5590 5591 5594 5595 5597 5598 5599 5601 5602 5603 5603 5604 5606 5607 5608 5610 5611 5612 5613 5615 5617 5618 5619 5621 5622 5624 5626 5628 5630 5631 5632 5632 5634 5635 5637 5638 5639 5638
5570 5574 5577 5579 5582 5584 5585 5587 5589 5591 5593 5594 5595 5596 5597 5598 5599 5600 5601 5602 5603 5604 5605 5607 5609 5610 5612 5613 5615 5617 5618 5620 5621 5623 5624 5625 5626 5627 5629 5631 5632 5632 5632 5632
Wind_Speed
49 62 56 48 42 45 45 42 40 40 41 39 37 40 41 47 43 44 43 42 43 49 49 51 49 48 50 50 45 43 41 39 41 40 38 36 33 35 33 31 31 29 30 32
48 58 56 42 41 36 38 39 38 34 35 38 37 37 45 48 48 43 38 44 43 46 52 51 51 48 48 46 45 41 39 38 37 39 39 37 35 34 31 31 31 33 34 34
51 53 60 43 42 38 35 36 32 35 36 34 35 41 41 45 49 46 46 38 42 42 44 49 48 48 46 45 44 42 40 38 40 40 40 38 34 32 33 33 34 35 35 35
51 52 53 53 40 36 30 30 32 34 34 33 32 35 40 38 43 49 45 43 38 42 40 40 46 48 49 46 44 43 44 44 43 39 37 36 35 34 34 34 36 36 37 37
46 49 47 41 39 37 30 26 28 28 28 27 29 33 38 41 40 41 43 42 41 39 38 38 38 45 49 50 49 43 43 43 42 41 38 35 35 36 38 38 39 39 40 40
46 50 49 36 35 38 33 25 25 27 26 30 26 28 32 34 35 38 41 38 45 42 40 40 38 40 45 51 47 49 52 47 42 42 42 43 41 41 41 42 42 41 42 43
48 51 41 38 39 38 34 29 28 31 30 27 27 30 24 24 34 40 43 38 38 43 38 38 42 41 40 42 49 52 50 50 53 53 52 45 43 42 42 42 41 41 42 43
45 49 39 29 38 34 32 32 34 32 30 26 26 21 18 20 26 39 45 42 40 37 37 37 43 43 42 41 42 44 46 42 41 44 47 48 47 44 42 41 39 40 41 41
39 46 40 40 36 37 33 31 30 28 25 28 23 15 16 18 24 34 44 41 38 34 33 35 38 45 47 43 42 41 45 41 37 35 37 39 40 39 39 40 40 40 41 42
38 41 39 35 34 35 34 25 24 22 19 26 30 23 15 13 26 33 41 40 37 39 36 35 32 35 39 39 40 41 43 44 43 39 39 39 39 39 40 41 41 42 42 42
24 22 23 26 31 32 35 25 30 27 28 27 24 26 17 19 25 32 40 37 37 36 39 38 34 34 36 36 36 37 37 38 39 38 38 38 40 41 41 42 42 42 41 39
24 20 16 15 20 22 29 26 27 30 27 31 26 22 15 12 17 25 36 39 37 36 37 39 37 33 34 35 36 36 37 37 38 39 41 40 40 41 41 41 40 39 37 36
22 22 22 23 22 22 27 28 24 28 30 32 30 20 17 12 9 20 27 32 36 35 36 38 39 41 35 33 35 36 39 40 40 40 39 40 39 39 38 36 36 35 35 36
16 15 15 14 14 16 19 25 28 26 27 28 30 27 25 26 23 19 26 33 33 34 35 34 37 34 40 35 36 37 37 38 39 38 37 35 34 34 33 34 34 35 35 35
11 12 16 14 14 15 16 21 26 26 25 30 27 24 22 23 24 24 23 28 33 35 35 34 34 36 36 38 37 36 36 34 34 33 32 31 31 31 32 33 34 34 34 34
11 10 11 13 14 16 18 19 20 21 21 21 21 21 21 19 17 14 14 19 25 28 30 33 34 35 35 35 35 32 30 29 29 29 29 30 29 29 31 32 33 32 32 31
13 11 11 13 14 16 19 21 22 22 21 23 23 19 19 17 13 16 15 15 16 18 19 23 26 29 31 32 28 27 26 26 27 27 27 28 29 29 30 31 30 30 29 29
16 14 14 15 17 17 15 20 22 22 23 21 22 21 19 19 17 15 17 16 15 16 17 18 19 22 24 25 25 25 25 25 26 27 26 26 28 28 27 27 27 26 26 27
17 15 16 15 15 15 15 17 18 19 21 21 22 23 18 17 18 20 18 19 19 18 19 19 19 20 21 23 24 25 25 26 26 26 26 26 25 24 24 23 23 23 24 24
16 16 16 14 15 15 15 14 14 15 15 15 18 19 19 18 21 22 19 17 17 18 20 21 21 22 22 23 24 25 25 24 24 24 25 24 25 25 24 22 22 22 21 23
19 19 17 16 15 15 14 13 14 13 13 12 14 14 17 20 22 18 18 18 19 20 22 22 22 22 22 24 23 23 23 23 23 23 23 23 24 23 20 20 20 20 19 19
17 18 17 16 17 16 13 14 14 13 14 15 14 13 16 18 18 19 20 21 22 21 21 21 20 19 20 20 21 22 22 22 22 21 21 22 20 18 20 20 18 18 18 19
16 16 17 16 18 16 16 15 15 14 14 13 11 11 15 17 18 18 19 20 19 19 20 20 19 18 18 17 17 19 20 20 21 20 21 21 19 19 19 17 18 18 18 20
17 16 16 17 17 15 16 16 15 13 14 11 11 11 11 14 17 19 19 17 16 17 19 19 19 17 17 17 16 16 17 19 19 20 20 19 17 18 18 18 18 18 19 20
19 17 17 17 17 15 16 17 16 15 15 13 14 14 14 13 14 16 17 17 16 17 18 19 20 18 18 17 16 15 16 18 18 19 20 20 18 18 19 19 18 18 19 21
23 22 20 19 16 17 17 18 16 16 16 16 16 16 16 16 16 16 18 20 18 18 19 19 20 21 21 21 20 18 18 18 18 17 17 17 17 18 19 19 19 19 21 23
Wind_Direction
199 193 195 201 204 205 211 217 214 213 216 214 212 219 220 223 221 225 223 226 227 226 223 216 217 222 227 225 225 228 234 237 239 240 243 245 251 254 258 262 267 271 272 273
198 196 187 196 203 201 208 212 214 215 220 225 219 216 223 222 223 222 221 222 225 223 223 222 217 224 227 230 232 232 232 237 244 248 248 246 248 255 259 262 264 266 268 273
187 193 189 187 203 195 198 208 209 213 218 221 226 224 227 226 224 228 226 226 228 225 225 226 222 222 227 229 230 233 237 237 240 243 249 253 251 254 258 259 261 264 269 273
184 186 190 191 200 193 192 201 207 209 214 222 228 229 229 233 232 225 227 226 227 228 228 226 227 226 226 230 230 231 231 232 235 241 248 256 261 262 262 263 266 268 271 275
177 181 181 185 199 191 189 195 203 208 215 222 220 223 219 230 232 229 226 228 227 228 228 229 231 229 228 231 232 233 236 239 241 242 244 250 258 263 266 268 268 270 273 274
173 176 182 177 194 192 195 197 205 212 219 225 227 229 215 232 231 226 225 228 229 226 222 228 228 230 230 229 231 235 238 241 247 252 252 254 256 256 258 260 263 268 270 275
169 170 168 183 191 188 192 194 194 209 220 225 226 237 224 231 227 227 222 222 232 228 228 232 232 232 231 231 233 235 237 242 246 250 254 255 254 254 257 259 261 264 268 272
167 172 170 165 195 189 192 199 206 214 217 218 232 242 228 239 232 222 224 221 218 225 225 232 230 230 232 231 234 235 236 240 246 248 249 252 258 259 258 259 261 262 265 268
178 173 173 177 188 192 201 212 217 219 229 240 238 236 247 245 246 224 218 221 218 225 226 229 224 229 232 231 236 240 235 235 242 246 248 249 253 255 258 258 260 264 266 267
179 181 186 187 191 200 198 207 215 212 233 243 235 251 259 282 254 228 216 215 216 219 223 215 222 228 229 229 233 236 237 236 245 246 249 249 250 253 255 259 262 264 267 270
170 184 191 196 199 207 209 227 217 214 235 248 249 243 262 270 245 226 210 212 218 222 233 217 226 229 230 230 230 232 235 238 243 246 247 249 252 254 258 261 263 265 266 267
179 178 200 195 198 205 209 212 215 226 241 240 252 245 242 261 222 223 217 217 218 223 228 218 224 231 231 232 234 233 237 243 245 247 248 251 254 257 259 262 263 262 263 265
175 193 196 195 204 211 213 215 225 232 237 240 243 239 245 260 247 219 218 223 226 227 229 231 230 231 237 242 242 241 240 245 248 249 251 253 256 257 259 259 260 263 267 269
167 176 181 198 211 217 218 216 220 232 241 244 249 249 253 260 270 252 220 216 221 227 231 232 235 241 236 243 250 251 249 249 251 253 254 254 255 255 257 259 262 264 265 264
160 175 191 204 212 208 204 216 224 231 234 235 238 243 251 259 260 256 223 219 222 226 231 235 234 240 242 246 249 250 253 252 252 251 250 251 253 255 256 259 260 260 261 262
191 206 216 220 227 229 228 225 228 231 229 230 240 248 252 251 232 177 219 226 224 226 232 234 235 237 243 244 253 250 247 245 245 244 244 246 250 255 256 258 259 262 261 256
217 224 235 234 234 239 237 239 237 237 233 230 233 236 235 242 232 205 209 210 217 220 228 230 232 235 240 246 244 243 240 241 242 244 246 248 250 253 256 260 261 257 254 256
239 242 247 236 235 242 244 243 242 243 243 242 242 240 232 236 248 242 230 228 230 237 237 233 234 235 236 239 242 241 239 241 243 243 246 250 252 255 257 257 254 253 254 254
241 237 232 238 241 238 241 243 244 245 246 250 249 252 246 234 232 237 238 233 240 242 241 241 240 241 242 242 241 242 242 243 245 246 247 248 249 250 252 250 249 251 258 261
237 226 229 234 237 237 237 239 245 243 238 234 240 244 247 232 229 235 240 236 235 237 242 245 246 245 245 244 244 243 244 244 244 244 243 242 247 246 247 251 255 258 261 264
236 226 230 230 227 222 227 234 233 233 231 230 226 224 230 236 235 235 239 244 245 247 249 251 251 250 247 247 246 244 243 242 241 237 238 246 247 243 250 255 254 255 255 264
223 225 228 224 219 223 227 222 222 223 225 226 228 234 230 235 236 234 239 243 245 247 248 250 250 250 250 247 243 239 239 239 235 237 240 243 244 240 243 244 246 255 259 268
219 221 219 221 216 226 219 219 233 220 213 220 232 233 234 235 238 241 242 244 248 249 246 243 242 249 246 241 241 237 235 233 232 238 241 235 233 238 239 246 253 258 261 263
217 216 214 215 217 218 218 221 233 235 216 219 234 233 241 238 237 239 240 239 241 243 241 240 237 245 244 240 241 238 232 230 237 240 228 227 242 242 249 252 254 253 257 267
221 218 215 215 218 215 218 222 225 231 237 234 236 241 246 250 246 242 239 241 245 247 247 243 241 244 241 240 239 238 235 236 236 233 233 239 243 247 248 244 242 254 268 275
224 227 226 225 223 223 221 228 230 234 238 239 241 248 252 255 254 252 246 243 250 253 245 244 243 241 241 239 241 243 240 237 237 241 244 246 244 240 236 239 249 262 273 279